Port Huron, MI

9:10 AM EDT on August 18, 2017 (GMT -0400)
Saint Clair County International

Weather History for KPHN - January, 2014

Change the Weather History Date:

Monday, January 20, 2014

  Actual Average (KMTC) Record (KMTC)
Temperature  
Mean Temperature 19 °F -  
Max Temperature 28 °F 30 °F 53 °F (2006)
Min Temperature 10 °F 16 °F -7 °F (1985)
Degree Days  
Heating Degree Days 46    
Moisture  
Dew Point 11 °F    
Average Humidity 72    
Maximum Humidity 100    
Minimum Humidity 52    
Precipitation  
Precipitation 0.00 in - - ()
Sea Level Pressure  
Sea Level Pressure 29.80 in    
Wind  
Wind Speed 8 mph (NW)    
Max Wind Speed 14 mph    
Max Gust Speed 21 mph    
Visibility 8 miles    
Events Snow    
Averages and records for this station are not official NWS values.
T = Trace of Precipitation, MM = Missing Value Source: NWS Daily Summary

Daily Weather History Graph

Daily Weather History Graph

Search for Another Location

Airport or City:

Trip Planner

Search our weather history database for the weather conditions in past years. The results will help you decide how hot, cold, wet, or windy it might be!

Date:

Astronomy

Jan. 20, 2014 Rise Set
Actual Time 7:55 AM EST 5:27 PM EST
Civil Twilight 7:24 AM EST 5:58 PM EST
Nautical Twilight 6:49 AM EST 6:33 PM EST
Astronomical Twilight 6:16 AM EST 7:06 PM EST
Moon 10:09 PM EST (1/20) 9:47 AM EST (1/20)
Length of Visible Light 10h 33m
Length of Day
9h 31m
Waning Gibbous, 83% of the Moon is Illuminated
Jan 20
Waning Gibbous
Jan 24
Last Quarter
Jan 30
New
Feb 6
First Quarter
Feb 14
Full

Hourly Weather History & Observations

Time (EST) Temp. Windchill Dew Point Humidity Pressure Visibility Wind Dir Wind Speed Gust Speed Precip Events Conditions
12:18 AM 28.4 °F 20.4 °F 21.2 °F 74% 29.51 in 10.0 mi SSW 8.1 mph - N/A   Overcast
12:38 AM 28.4 °F 19.1 °F 21.2 °F 74% 29.50 in 10.0 mi SSW 10.4 mph - N/A   Overcast
12:58 AM 28.4 °F 19.1 °F 21.2 °F 74% 29.50 in 10.0 mi SSW 10.4 mph - N/A   Overcast
1:18 AM 28.4 °F 21.2 °F 21.2 °F 74% 29.49 in 10.0 mi SSW 6.9 mph - N/A   Overcast
1:38 AM 28.4 °F 23.3 °F 21.2 °F 74% 29.50 in 10.0 mi SW 4.6 mph - N/A   Overcast
1:58 AM 28.4 °F 19.7 °F 23.0 °F 80% 29.49 in 7.0 mi SSW 9.2 mph - N/A   Overcast
2:18 AM 26.6 °F 18.2 °F 23.0 °F 86% 29.49 in 5.0 mi SW 8.1 mph - N/A   Overcast
2:38 AM 26.6 °F 22.6 °F 23.0 °F 86% 29.50 in 4.0 mi SW 3.5 mph - N/A   Overcast
2:58 AM 26.6 °F 22.6 °F 23.0 °F 86% 29.51 in 4.0 mi SW 3.5 mph - N/A   Overcast
3:18 AM 26.6 °F - 24.8 °F 93% 29.52 in 5.0 mi Calm Calm - N/A   Overcast
3:38 AM 26.6 °F 22.6 °F 24.8 °F 93% 29.53 in 5.0 mi WSW 3.5 mph - N/A   Overcast
3:58 AM 26.6 °F 22.6 °F 24.8 °F 93% 29.53 in 4.0 mi WSW 3.5 mph - N/A   Overcast
4:18 AM 26.6 °F 22.6 °F 24.8 °F 93% 29.54 in 4.0 mi WSW 3.5 mph - N/A   Overcast
4:38 AM 26.6 °F 21.2 °F 24.8 °F 93% 29.56 in 2.5 mi West 4.6 mph - N/A   Overcast
4:58 AM 26.6 °F 21.2 °F 24.8 °F 93% 29.56 in 2.5 mi West 4.6 mph - N/A   Overcast
5:18 AM 26.6 °F - 26.6 °F 100% 29.57 in 2.0 mi Calm Calm - N/A   Overcast
5:38 AM 26.6 °F 16.2 °F 24.8 °F 93% 29.60 in 4.0 mi North 11.5 mph 16.1 mph N/A   Overcast
5:58 AM 26.6 °F 16.2 °F 23.0 °F 86% 29.61 in 4.0 mi North 11.5 mph 16.1 mph N/A   Overcast
6:18 AM 24.8 °F 13.4 °F 21.2 °F 86% 29.64 in 4.0 mi North 12.7 mph 17.3 mph N/A Snow Light Snow
6:38 AM 23.0 °F 12.4 °F 19.4 °F 86% 29.65 in 5.0 mi North 10.4 mph 17.3 mph N/A Snow Light Snow
6:58 AM 23.0 °F 13.1 °F 19.4 °F 86% 29.68 in 5.0 mi NNW 9.2 mph - N/A Snow Light Snow
7:18 AM 21.2 °F 10.1 °F 17.6 °F 86% 29.68 in 7.0 mi NNW 10.4 mph 18.4 mph N/A Snow Light Snow
7:38 AM 21.2 °F 10.1 °F 17.6 °F 86% 29.70 in 7.0 mi NW 10.4 mph - N/A Snow Light Snow
7:58 AM 21.2 °F 9.5 °F 15.8 °F 80% 29.70 in 5.0 mi NW 11.5 mph 18.4 mph N/A Snow Light Snow
8:18 AM 19.4 °F 10.4 °F 15.8 °F 86% 29.71 in 4.0 mi NW 6.9 mph - N/A Snow Light Snow
8:38 AM 19.4 °F 8.6 °F 15.8 °F 86% 29.72 in 10.0 mi NW 9.2 mph - N/A Snow Light Snow
8:58 AM 19.4 °F 7.2 °F 14.0 °F 80% 29.73 in 10.0 mi NW 11.5 mph - N/A   Overcast
9:18 AM 19.4 °F 6.0 °F 14.0 °F 80% 29.75 in 10.0 mi NW 13.8 mph 18.4 mph N/A   Overcast
9:38 AM 19.4 °F 7.9 °F 12.2 °F 74% 29.75 in 10.0 mi NW 10.4 mph 18.4 mph N/A   Overcast
9:58 AM 17.6 °F 5.7 °F 12.2 °F 79% 29.78 in 10.0 mi NW 10.4 mph - N/A   Overcast
10:18 AM 19.4 °F 7.2 °F 12.2 °F 74% 29.80 in 10.0 mi NW 11.5 mph - N/A   Overcast
10:38 AM 17.6 °F 5.7 °F 12.2 °F 79% 29.82 in 10.0 mi NW 10.4 mph - N/A Snow Light Snow
10:58 AM 17.6 °F 4.3 °F 10.4 °F 73% 29.83 in 10.0 mi WNW 12.7 mph 16.1 mph N/A Snow Light Snow
11:18 AM 17.6 °F 5.7 °F 10.4 °F 73% 29.84 in 10.0 mi NW 10.4 mph - N/A   Overcast
11:38 AM 17.6 °F 6.4 °F 10.4 °F 73% 29.83 in 10.0 mi WNW 9.2 mph 19.6 mph N/A   Overcast
11:58 AM 17.6 °F 5.0 °F 8.6 °F 68% 29.83 in 10.0 mi NW 11.5 mph 17.3 mph N/A   Overcast
12:18 PM 17.6 °F 5.0 °F 8.6 °F 68% 29.83 in 10.0 mi WNW 11.5 mph - N/A   Overcast
12:38 PM 17.6 °F 5.7 °F 6.8 °F 63% 29.83 in 10.0 mi NW 10.4 mph - N/A   Overcast
12:58 PM 17.6 °F 4.3 °F 5.0 °F 58% 29.84 in 10.0 mi NW 12.7 mph 20.7 mph N/A   Overcast
1:18 PM 17.6 °F 4.3 °F 6.8 °F 63% 29.83 in 10.0 mi NW 12.7 mph 20.7 mph N/A   Overcast
1:38 PM 17.6 °F 4.3 °F 5.0 °F 58% 29.84 in 10.0 mi NW 12.7 mph 17.3 mph N/A   Overcast
1:58 PM 17.6 °F 6.4 °F 5.0 °F 58% 29.85 in 10.0 mi NW 9.2 mph - N/A   Overcast
2:18 PM 17.6 °F 7.3 °F 5.0 °F 58% 29.86 in 10.0 mi NW 8.1 mph - N/A   Overcast
2:38 PM 17.6 °F 7.3 °F 3.2 °F 53% 29.87 in 10.0 mi NNW 8.1 mph 17.3 mph N/A   Overcast
2:58 PM 17.6 °F 6.4 °F 3.2 °F 53% 29.89 in 10.0 mi North 9.2 mph - N/A   Overcast
3:18 PM 17.6 °F 6.4 °F 5.0 °F 58% 29.90 in 10.0 mi NW 9.2 mph - N/A   Overcast
3:38 PM 15.8 °F 6.1 °F 5.0 °F 62% 29.91 in 10.0 mi North 6.9 mph - N/A   Overcast
3:58 PM 15.8 °F 6.1 °F 5.0 °F 62% 29.93 in 10.0 mi North 6.9 mph - N/A   Overcast
4:18 PM 15.8 °F 6.1 °F 5.0 °F 62% 29.94 in 10.0 mi NNE 6.9 mph - N/A   Overcast
4:38 PM 15.8 °F 6.1 °F 5.0 °F 62% 29.95 in 10.0 mi NNE 6.9 mph - N/A   Overcast
4:58 PM 14.0 °F 3.9 °F 3.2 °F 62% 29.96 in 10.0 mi North 6.9 mph - N/A   Overcast
5:18 PM 14.0 °F 3.9 °F 5.0 °F 67% 29.97 in 7.0 mi North 6.9 mph - N/A   Overcast
5:38 PM 14.0 °F 1.2 °F 3.2 °F 62% 29.97 in 10.0 mi North 10.4 mph - N/A   Overcast
5:58 PM 14.0 °F 1.2 °F 5.0 °F 67% 29.97 in 10.0 mi North 10.4 mph - N/A   Overcast
6:18 PM 12.2 °F 0.7 °F 3.2 °F 67% 29.98 in 10.0 mi North 8.1 mph 16.1 mph N/A   Overcast
6:38 PM 12.2 °F -0.2 °F 3.2 °F 67% 29.99 in 10.0 mi North 9.2 mph - N/A   Overcast
6:58 PM 12.2 °F 0.7 °F 1.4 °F 62% 29.99 in 10.0 mi North 8.1 mph - N/A   Overcast
7:18 PM 12.2 °F 0.7 °F 1.4 °F 62% 29.99 in 10.0 mi North 8.1 mph - N/A   Overcast
7:38 PM 12.2 °F 1.7 °F 1.4 °F 62% 30.00 in 10.0 mi NNW 6.9 mph - N/A   Overcast
7:58 PM 12.2 °F 1.7 °F 1.4 °F 62% 30.02 in 10.0 mi NNW 6.9 mph - N/A   Overcast
8:18 PM 12.2 °F 1.7 °F 1.4 °F 62% 30.03 in 10.0 mi NNW 6.9 mph - N/A   Overcast
8:38 PM 12.2 °F -0.2 °F 1.4 °F 62% 30.02 in 10.0 mi North 9.2 mph - N/A   Overcast
8:58 PM 12.2 °F -0.2 °F 1.4 °F 62% 30.03 in 10.0 mi NNW 9.2 mph 16.1 mph N/A   Overcast
9:18 PM 12.2 °F 2.9 °F 1.4 °F 62% 30.03 in 10.0 mi NNW 5.8 mph - N/A   Overcast
9:38 PM 12.2 °F 0.7 °F -0.4 °F 57% 30.04 in 10.0 mi NNW 8.1 mph 16.1 mph N/A   Overcast
9:58 PM 12.2 °F 1.7 °F -0.4 °F 57% 30.04 in 10.0 mi NNW 6.9 mph - N/A   Overcast
10:18 PM 12.2 °F 0.7 °F -0.4 °F 57% 30.05 in 10.0 mi NNW 8.1 mph - N/A   Overcast
10:38 PM 12.2 °F -0.2 °F -0.4 °F 57% 30.05 in 10.0 mi North 9.2 mph - N/A   Overcast
10:58 PM 10.4 °F -0.4 °F -2.2 °F 57% 30.05 in 10.0 mi NNW 6.9 mph - N/A   Overcast
11:18 PM 10.4 °F -3.3 °F -2.2 °F 57% 30.05 in 10.0 mi NNW 10.4 mph - N/A   Overcast
11:38 PM 10.4 °F -2.4 °F -4.0 °F 52% 30.06 in 10.0 mi NNW 9.2 mph - N/A   Overcast
11:58 PM 10.4 °F -0.4 °F -4.0 °F 52% 30.05 in 10.0 mi NNW 6.9 mph - N/A   Overcast